EN

Hourly Weather Amarante Municipality

Today, 20 January, Wednesday

Time Temperature Precipitation Wind Pressure Humidity
00:00 +7°C° 2.6 mm 4 mps 726 mmHg 89%
01:00 +7°C° 2.6 mm 4 mps 725 mmHg 91%
02:00 +7°C° 2.6 mm 4 mps 725 mmHg 94%
03:00 +7°C° 0.7 mm 4 mps 724 mmHg 94%
04:00 +8°C° 0.7 mm 3 mps 724 mmHg 94%
05:00 +9°C° 0.7 mm 3 mps 723 mmHg 95%
06:00 +9°C° 1.4 mm 3 mps 723 mmHg 95%
07:00 +9°C° 1.4 mm 3 mps 723 mmHg 96%
08:00 +9°C° 1.4 mm 3 mps 723 mmHg 96%
09:00 +10°C° 2.1 mm 4 mps 723 mmHg 96%
10:00 +9°C° 2.1 mm 5 mps 723 mmHg 95%
11:00 +10°C° 2.1 mm 6 mps 723 mmHg 95%
12:00 +10°C° 2 mm 6 mps 723 mmHg 95%
13:00 +10°C° 2 mm 6 mps 723 mmHg 95%
14:00 +10°C° 2 mm 6 mps 722 mmHg 95%
15:00 +10°C° 1.4 mm 6 mps 723 mmHg 95%
16:00 +10°C° 1.4 mm 6 mps 723 mmHg 95%
17:00 +9°C° 1.4 mm 5 mps 724 mmHg 95%
18:00 +9°C° 0.5 mm 5 mps 724 mmHg 95%
19:00 +9°C° 0.5 mm 5 mps 725 mmHg 95%
20:00 +10°C° 0.5 mm 4 mps 725 mmHg 96%
21:00 +10°C° 0.4 mm 4 mps 726 mmHg 96%
22:00 +10°C° 0.4 mm 4 mps 727 mmHg 96%
23:00 +10°C° 0.4 mm 4 mps 727 mmHg 96%

Tomorrow, 21 January, Thursday

Time Temperature Precipitation Wind Pressure Humidity
00:00 +10°C° 0.3 mm 3 mps 728 mmHg 97%
01:00 +10°C° 0.3 mm 3 mps 728 mmHg 97%
02:00 +10°C° 0.3 mm 3 mps 728 mmHg 98%
03:00 +10°C° 0.2 mm 3 mps 728 mmHg 97%
04:00 +10°C° 0.2 mm 4 mps 728 mmHg 97%
05:00 +10°C° 0.2 mm 4 mps 728 mmHg 97%
06:00 +9°C° 0.2 mm 5 mps 728 mmHg 97%
07:00 +9°C° 0.2 mm 5 mps 728 mmHg 96%
08:00 +9°C° 0.2 mm 5 mps 728 mmHg 96%
09:00 +10°C° 1.7 mm 6 mps 727 mmHg 96%
10:00 +10°C° 1.7 mm 7 mps 727 mmHg 96%
11:00 +10°C° 1.7 mm 8 mps 727 mmHg 96%
12:00 +11°C° 2.7 mm 8 mps 727 mmHg 94%
13:00 +11°C° 2.7 mm 8 mps 726 mmHg 92%
14:00 +11°C° 2.7 mm 8 mps 726 mmHg 91%
15:00 +11°C° 1.1 mm 8 mps 726 mmHg 91%
16:00 +10°C° 1.1 mm 7 mps 727 mmHg 92%
17:00 +10°C° 1.1 mm 6 mps 727 mmHg 92%
18:00 +10°C° 0.6 mm 6 mps 727 mmHg 93%
19:00 +9°C° 0.6 mm 5 mps 727 mmHg 93%
20:00 +10°C° 0.6 mm 4 mps 728 mmHg 93%
21:00 +10°C° 0.4 mm 4 mps 727 mmHg 94%
22:00 +10°C° 0.4 mm 4 mps 726 mmHg 94%
23:00 +10°C° 0.4 mm 3 mps 726 mmHg 95%

Day after tomorrow, 22 January, Friday

Time Temperature Precipitation Wind Pressure Humidity
00:00 +9°C° 1.2 mm 6 mps 725 mmHg 93%
01:00 +9°C° 1.2 mm 8 mps 724 mmHg 91%
02:00 +8°C° 1.2 mm 10 mps 724 mmHg 88%
03:00 +8°C° 0.9 mm 10 mps 724 mmHg 86%
04:00 +7°C° 0.9 mm 9 mps 724 mmHg 85%
05:00 +6°C° 0.9 mm 9 mps 725 mmHg 83%
06:00 +6°C° 0.8 mm 8 mps 725 mmHg 83%
07:00 +6°C° 0.8 mm 8 mps 726 mmHg 83%
08:00 +6°C° 0.8 mm 7 mps 727 mmHg 84%
09:00 +6°C° 0.8 mm 7 mps 727 mmHg 83%
10:00 +6°C° 0.8 mm 7 mps 728 mmHg 82%
11:00 +6°C° 0.8 mm 7 mps 728 mmHg 82%
12:00 +7°C° 0.4 mm 6 mps 728 mmHg 84%
13:00 +7°C° 0.4 mm 6 mps 728 mmHg 86%
14:00 +7°C° 0.4 mm 5 mps 728 mmHg 88%
15:00 +7°C° 0.5 mm 6 mps 728 mmHg 88%
16:00 +7°C° 0.5 mm 6 mps 729 mmHg 88%
17:00 +7°C° 0.5 mm 6 mps 729 mmHg 89%
18:00 +7°C° 0.2 mm 6 mps 730 mmHg 88%
19:00 +6°C° 0.2 mm 5 mps 730 mmHg 87%
20:00 +5°C° 0.2 mm 4 mps 730 mmHg 87%
21:00 +6°C° 0.4 mm 5 mps 731 mmHg 87%
22:00 +5°C° 0.4 mm 6 mps 731 mmHg 88%
23:00 +6°C° 0.4 mm 7 mps 731 mmHg 88%

23 January, Saturday

Time Temperature Precipitation Wind Pressure Humidity
00:00 +6°C° 0.5 mm 7 mps 731 mmHg 89%
01:00 +7°C° 0.5 mm 6 mps 731 mmHg 89%
02:00 +7°C° 0.5 mm 6 mps 731 mmHg 90%
03:00 +7°C° 0.4 mm 5 mps 731 mmHg 90%
04:00 +7°C° 0.4 mm 4 mps 731 mmHg 91%
05:00 +6°C° 0.4 mm 4 mps 731 mmHg 92%
06:00 +8°C° 0.6 mm 3 mps 731 mmHg 92%
07:00 +8°C° 0.6 mm 3 mps 732 mmHg 93%
08:00 +8°C° 0.6 mm 3 mps 732 mmHg 93%
09:00 +8°C° 0.9 mm 3 mps 732 mmHg 93%
10:00 +8°C° 0.9 mm 3 mps 732 mmHg 93%
11:00 +8°C° 0.9 mm 3 mps 732 mmHg 94%
12:00 +7°C° 1 mm 4 mps 731 mmHg 92%
13:00 +8°C° 1 mm 4 mps 731 mmHg 90%
14:00 +8°C° 1 mm 5 mps 730 mmHg 88%
15:00 +8°C° 1.5 mm 4 mps 729 mmHg 91%
16:00 +8°C° 1.5 mm 4 mps 728 mmHg 93%
17:00 +8°C° 1.5 mm 4 mps 728 mmHg 96%
18:00 +9°C° 4 mm 5 mps 727 mmHg 97%
19:00 +10°C° 4 mm 6 mps 726 mmHg 97%
20:00 +10°C° 4 mm 7 mps 725 mmHg 98%
21:00 +10°C° 2.2 mm 8 mps 725 mmHg 96%
22:00 +10°C° 2.2 mm 8 mps 725 mmHg 94%
23:00 +10°C° 2.2 mm 8 mps 726 mmHg 92%

24 January, Sunday

Time Temperature Precipitation Wind Pressure Humidity
00:00 +9°C° 0.5 mm 7 mps 726 mmHg 92%
01:00 +8°C° 0.5 mm 6 mps 727 mmHg 93%
02:00 +8°C° 0.5 mm 4 mps 728 mmHg 94%
03:00 +8°C° 0.2 mm 3 mps 728 mmHg 94%
04:00 +8°C° 0.2 mm 3 mps 729 mmHg 95%
05:00 +8°C° 0.2 mm 2 mps 729 mmHg 95%
06:00 +8°C° 0.1 mm 2 mps 730 mmHg 95%
07:00 +9°C° 0.1 mm 1 mps 731 mmHg 95%
08:00 +9°C° 0.1 mm 1 mps 731 mmHg 94%
09:00 +10°C° 0 mm 1 mps 732 mmHg 88%
10:00 +11°C° 0 mm 1 mps 732 mmHg 82%
11:00 +12°C° 0 mm 1 mps 732 mmHg 76%
12:00 +12°C° 0 mm 2 mps 732 mmHg 75%
13:00 +12°C° 0 mm 2 mps 732 mmHg 73%
14:00 +12°C° 0 mm 2 mps 732 mmHg 71%
15:00 +10°C° 0 mm 2 mps 732 mmHg 77%
16:00 +9°C° 0 mm 1 mps 733 mmHg 82%
17:00 +8°C° 0 mm 1 mps 733 mmHg 87%
18:00 +8°C° 0 mm 1 mps 733 mmHg 88%
19:00 +6°C° 0 mm 0 mps 734 mmHg 89%
20:00 +5°C° 0 mm 0 mps 734 mmHg 91%
21:00 +5°C° 0 mm 0 mps 734 mmHg 91%
22:00 +5°C° 0 mm 0 mps 734 mmHg 91%
23:00 +5°C° 0 mm 0 mps 734 mmHg 91%

25 January, Monday

Time Temperature Precipitation Wind Pressure Humidity
00:00 +5°C° 0 mm 0 mps 734 mmHg 91%
01:00 +4°C° 0 mm 0 mps 734 mmHg 91%
02:00 +4°C° 0 mm 0 mps 734 mmHg 91%
03:00 +4°C° 0 mm 0 mps 734 mmHg 91%
04:00 +4°C° 0 mm 0 mps 734 mmHg 91%
05:00 +4°C° 0 mm 0 mps 734 mmHg 91%
06:00 +4°C° 0 mm 0 mps 735 mmHg 89%
07:00 +5°C° 0 mm 0 mps 735 mmHg 88%
08:00 +6°C° 0 mm 0 mps 736 mmHg 86%
09:00 +7°C° 0 mm 0 mps 736 mmHg 79%
10:00 +9°C° 0 mm 0 mps 736 mmHg 71%
11:00 +11°C° 0 mm 0 mps 736 mmHg 64%
12:00 +13°C° 0 mm 1 mps 736 mmHg 63%
13:00 +13°C° 0 mm 1 mps 736 mmHg 61%
14:00 +13°C° 0 mm 1 mps 735 mmHg 60%
15:00 +12°C° 0 mm 1 mps 736 mmHg 67%
16:00 +9°C° 0 mm 0 mps 736 mmHg 75%
17:00 +8°C° 0 mm 0 mps 736 mmHg 83%
18:00 +8°C° 0 mm 0 mps 736 mmHg 84%
19:00 +8°C° 0 mm 0 mps 737 mmHg 85%
20:00 +7°C° 0 mm 0 mps 737 mmHg 86%
21:00 +8°C° 0 mm 0 mps 737 mmHg 85%
22:00 +8°C° 0 mm 0 mps 737 mmHg 84%
23:00 +10°C° 0 mm 1 mps 738 mmHg 83%
Show more